Location: Andershausen
(51.8462°N, 9.8595°E)
Time: 06:00:27
(UTC+00:00)

Iridium 4 Rocket - Pass Details

Date: 18 November 2025
Orbit: 579 x 888 km, 86.9° (Epoch: 11 December)

Event Time Altitude Azimuth Distance (km) Brightness Sun altitude
Rises 16:12:55 0° 189° (S) 3,209 7.2 -7.3°
Reaches altitude 10° 16:15:21 10° 192° (SSW) 2,239 6.4 -7.7°
Maximum altitude 16:20:17 67° 275° (W) 751 3.7 -8.4°
Drops below altitude 10° 16:24:50 10° 359° (N) 2,065 5.6 -9.1°
Sets 16:27:01 0° 2° (N) 2,940 6.3 -9.4°
